Location: Casteau
(50.5142°N, 4.0161°E)
Time: 11:53:43
(UTC+00:00)

SR - Visible Passes

Search period start: 04 August 2021 00:00
Search period end: 14 August 2021 00:00
Orbit: 577 x 877 km, 66.7° (Epoch: 03 August)

Date Brightness Start Highest point End Pass type
(mag) Time Alt. Az. Time Alt. Az. Time Alt. Az.
06 Aug ? 03:06:19 10° SE 03:08:46 13° ESE 03:11:10 10° ENE visible
08 Aug ? 03:06:28 10° SSE 03:10:46 22° ESE 03:14:54 10° ENE visible
09 Aug ? 02:19:22 10° SE 02:21:23 12° ESE 02:23:23 10° E visible
10 Aug ? 03:07:43 10° S 03:12:54 36° ESE 03:17:49 10° NE visible
11 Aug ? 02:19:15 10° SSE 02:23:23 21° ESE 02:27:21 10° ENE visible
12 Aug ? 01:32:33 10° ESE 01:34:01 11° ESE 01:35:28 10° E visible
12 Aug ? 03:09:33 10° SSW 03:15:10 59° ESE 03:20:25 10° NE visible
13 Aug ? 02:21:24 15° S 02:25:30 34° ESE 02:30:19 10° NE visible
